CW9197 Weather Reports


time (UTC)temp
F
wind
direction
speed
knots
gust
knots
rain 1hr
in
rain 24hr
in
rain mn
in
humidity
%
barometer
mb
20260906075505 48 307 5.2 11.3 0.00 0.00 0.00 85 1003.1
20260906074504 48 312 2.6 6.1 0.00 0.00 0.00 85 1002.9
20260906073504 48 298 4.3 9.6 0.00 0.00 0.00 85 1002.8
20260906072504 48 296 6.1 13.9 0.00 0.00 0.00 84 1002.6
20260906071525 48 308 5.2 14.8 0.00 0.00 0.00 85 1002.6
20260906070505 48 312 4.3 9.6 0.00 0.00 0.00 85 1002.5
20260906065504 48 300 4.3 10.4 0.00 0.00 0.00 85 1002.3
20260906064524 48 314 5.2 14.8 0.00 0.00 0.00 85 1002.2
20260906063504 47 299 4.3 10.4 0.00 0.00 0.00 86 1002.0
20260906062503 47 312 5.2 11.3 0.00 0.00 0.00 86 1002.0
20260906061503 47 292 4.3 12.2 0.00 0.00 0.00 88 1001.9
20260906060503 47 302 3.5 14.8 0.00 0.00 0.00 90 1001.9
20260906055523 46 292 3.5 7.0 0.00 0.00 0.00 90 1001.8
20260906054505 46 287 3.5 7.8 0.00 0.00 0.00 91 1001.8
20260906053504 46 295 3.5 7.8 0.00 0.00 0.00 90 1001.7
20260906052524 46 295 2.6 7.0 0.00 0.00 0.00 90 1001.7
20260906051504 46 314 3.5 5.2 0.00 0.00 0.00 89 1001.6
20260906050504 46 314 3.5 7.8 0.00 0.00 0.00 90 1001.7
20260906045503 46 312 2.6 7.0 0.00 0.00 0.00 89 1001.7
20260906044503 46 315 3.5 9.6 0.00 0.00 0.00 89 1001.6
20260906043503 45 309 3.5 7.0 0.00 0.00 0.00 90 1001.5
20260906042502 45 302 4.3 13.0 0.00 0.00 0.00 91 1001.5
20260906041504 45 313 3.5 8.7 0.00 0.00 0.00 91 1001.4
20260906040524 44 306 3.5 7.8 0.00 0.00 0.00 92 1001.4
20260906035504 44 310 3.5 7.8 0.00 0.00 0.00 91 1001.3
20260906034504 44 305 4.3 11.3 0.00 0.00 0.00 91 1001.2
20260906033504 44 295 3.5 8.7 0.00 0.00 0.00 91 1001.1
20260906032503 44 318 4.3 13.9 0.00 0.00 0.00 90 1001.0
20260906031503 45 308 5.2 10.4 0.00 0.00 0.00 91 1001.0
20260906030503 45 312 3.5 11.3 0.00 0.00 0.00 91 1000.9
20260906025503 46 311 3.5 10.4 0.00 0.00 0.00 93 1000.8
20260906024505 46 286 3.5 9.6 0.00 0.00 0.00 94 1000.8
20260906023504 46 304 2.6 7.0 0.00 0.00 0.00 93 1000.8
20260906022504 46 322 3.5 10.4 0.00 0.00 0.00 93 1000.7
20260906021504 46 313 3.5 8.7 0.00 0.00 0.00 94 1000.7
20260906020504 46 297 3.5 10.4 0.00 0.00 0.00 93 1000.7
20260906015523 46 317 4.3 9.6 0.00 0.00 0.00 94 1000.6
20260906014503 47 316 2.6 6.1 0.00 0.00 0.00 94 1000.5
20260906013503 47 299 2.6 7.8 0.00 0.00 0.00 95 1000.4
20260906012503 47 321 3.5 10.4 0.00 0.00 0.00 95 1000.3
20260906011504 47 297 2.6 7.0 0.00 0.00 0.00 95 1000.2
20260906010504 47 303 3.5 8.7 0.00 0.00 0.00 95 1000.1
20260906005504 47 293 4.3 15.6 0.00 0.00 0.00 96 1000.1
20260906004504 47 311 3.5 7.8 0.00 0.00 0.00 96 1000.0
20260906003504 48 297 4.3 8.7 0.00 0.00 0.00 96 1000.0
20260906002504 48 299 3.5 7.8 0.00 0.00 0.00 94 999.8
20260906001503 48 316 3.5 10.4 0.00 0.00 0.00 94 999.7
20260906000503 48 323 4.3 9.6 0.00 0.00 0.00 94 999.5
20260905235503 48 297 3.5 10.4 0.00 0.00 0.00 96 999.5
20260905234505 48 316 2.6 7.0 0.00 0.00 0.00 96 999.4
20260905233505 49 296 2.6 6.1 0.00 0.00 0.00 96 999.4
20260905232505 49 297 4.3 11.3 0.00 0.00 0.00 97 999.4
20260905231504 49 289 3.5 7.8 0.00 0.00 0.00 98 999.3
20260905230504 49 275 2.6 6.1 0.00 0.00 0.00 98 999.3
20260905225504 48 271 1.7 4.3 0.00 0.00 0.00 98 999.2
20260905224503 48 276 2.6 5.2 0.00 0.00 0.00 97 999.1
20260905223503 48 297 2.6 6.1 0.00 0.00 0.00 97 999.1
20260905222503 48 289 2.6 6.1 0.00 0.00 0.00 97 999.0
20260905221525 48 303 2.6 4.3 0.00 0.00 0.00 96 998.9
20260905220524 49 308 2.6 5.2 0.00 0.00 0.00 97 998.9
20260905215524 49 315 1.7 7.8 0.00 0.00 0.00 97 998.8
20260905214504 49 320 2.6 4.3 0.00 0.00 0.00 97 998.8
20260905213504 49 328 1.7 5.2 0.00 0.00 0.00 97 998.8
20260905212503 49 325 2.6 5.2 0.00 0.00 0.00 98 998.7
20260905211503 49 288 2.6 5.2 0.00 0.00 0.00 98 998.6
20260905210503 49 291 1.7 3.5 0.00 0.00 0.00 98 998.5
20260905205503 49 294 2.6 6.1 0.00 0.00 0.00 98 998.4
20260905204507 49 307 2.6 6.1 0.00 0.00 0.00 98 998.4
20260905203525 49 297 2.6 5.2 0.00 0.00 0.00 98 998.3
20260905202504 49 318 2.6 7.0 0.00 0.00 0.00 98 998.2
20260905201504 49 309 2.6 5.2 0.00 0.00 0.00 98 998.2
20260905200504 49 291 2.6 7.0 0.00 0.00 0.00 98 998.1
20260905195504 49 287 2.6 4.3 0.00 0.00 0.00 98 998.1
20260905194504 49 281 2.6 4.3 0.00 0.00 0.00 97 997.9
20260905193503 49 296 2.6 7.0 0.00 0.00 0.00 97 997.9
20260905192503 50 293 2.6 5.2 0.00 0.00 0.00 97 997.9
20260905191503 50 301 2.6 5.2 0.00 0.00 0.00 97 997.8
20260905190503 50 284 2.6 7.0 0.00 0.00 0.00 97 997.8
20260905185504 50 305 2.6 7.0 0.00 0.00 0.00 97 997.8
20260905184504 50 304 2.6 5.2 0.00 0.00 0.00 97 997.8
20260905183504 50 291 2.6 7.0 0.00 0.00 0.00 97 997.7
20260905182504 50 287 3.5 8.7 0.00 0.00 0.00 97 997.7
20260905181504 51 314 2.6 5.2 0.00 0.00 0.00 97 997.6
20260905180503 51 305 2.6 6.1 0.00 0.00 0.00 97 997.6
20260905175523 51 314 1.7 3.5 0.00 0.00 0.00 97 997.6
20260905174503 51 323 1.7 4.3 0.00 0.00 0.00 97 997.5
20260905173505 51 318 1.7 3.5 0.00 0.00 0.00 97 997.4
20260905172505 51 280 1.7 2.6 0.00 0.00 0.00 97 997.3
20260905171504 51 309 1.7 5.2 0.00 0.00 0.00 96 997.2
20260905170504 51 312 1.7 5.2 0.00 0.00 0.00 97 997.1
20260905165504 52 303 1.7 4.3 0.00 0.00 0.00 97 997.0
20260905164504 52 297 0.9 3.5 0.00 0.00 0.00 97 996.9
20260905163504 53 301 1.7 3.5 0.00 0.00 0.00 97 996.9
20260905162503 54 289 1.7 5.2 0.00 0.00 0.00 97 996.8
20260905161505 54 298 1.7 4.3 0.00 0.00 0.00 97 996.7
20260905160502 54 297 1.7 3.5 0.00 0.00 0.00 97 996.6
20260905155504 54 255 1.7 3.5 0.00 0.00 0.00 97 996.6
20260905154504 54 277 1.7 3.5 0.00 0.00 0.00 97 996.5
20260905153504 54 266 2.6 6.1 0.00 0.00 0.00 97 996.4
20260905152504 54 300 1.7 3.5 0.00 0.00 0.00 97 996.4
20260905151503 54 275 1.7 3.5 0.00 0.00 0.00 97 996.3
20260905150504 54 269 2.6 6.1 0.00 0.00 0.00 97 996.3
20260905145503 54 212 0.9 2.6 0.00 0.00 0.00 97 996.3
20260905144503 54 280 2.6 5.2 0.00 0.00 0.00 97 996.3
20260905143503 54 240 0.9 1.7 0.00 0.00 0.00 97 996.3
20260905142505 53 266 1.7 3.5 0.00 0.00 0.00 97 996.2
20260905141504 53 271 0.9 2.6 0.00 0.00 0.00 97 996.1
20260905140504 53 310 1.7 3.5 0.00 0.00 0.00 96 996.1
20260905135525 53 321 2.6 5.2 0.00 0.00 0.00 96 996.0
20260905134504 53 342 3.5 6.1 0.00 0.00 0.00 96 996.0
20260905133504 53 339 2.6 5.2 0.00 0.00 0.00 96 996.0
20260905132504 53 338 2.6 4.3 0.00 0.00 0.00 94 996.0
20260905131523 55 349 3.5 7.8 0.00 0.00 0.00 91 995.9
20260905130523 59 327 2.6 5.2 0.00 0.00 0.00 83 995.7
20260905125503 59 263 3.5 7.0 0.00 0.00 0.00 83 995.6
20260905124504 60 270 2.6 7.8 0.00 0.00 0.00 78 995.6
20260905123504 59 239 1.7 3.5 0.00 0.00 0.00 79 995.6
20260905122504 60 260 3.5 6.1 0.00 0.00 0.00 78 995.5
20260905121545 59 284 3.5 7.0 0.00 0.00 0.00 78 995.4
20260905120504 60 263 2.6 7.0 0.00 0.00 0.00 79 995.4
20260905115504 60 259 2.6 5.2 0.00 0.00 0.00 77 995.4
20260905114504 60 215 1.7 4.3 0.00 0.00 0.00 78 995.4
20260905113503 60 266 2.6 6.1 0.00 0.00 0.00 77 995.4
20260905112503 60 217 2.6 4.3 0.00 0.00 0.00 78 995.3
20260905111523 60 239 2.6 7.8 0.00 0.00 0.00 76 995.3
20260905110505 59 264 2.6 7.0 0.00 0.00 0.00 78 995.3
20260905105504 59 229 2.6 5.2 0.00 0.00 0.00 79 995.2
20260905104504 59 271 2.6 7.0 0.00 0.00 0.00 77 995.2
20260905103504 60 255 2.6 7.0 0.00 0.00 0.00 78 995.2
20260905102504 60 250 3.5 8.7 0.00 0.00 0.00 78 995.1
20260905101503 59 225 2.6 6.1 0.00 0.00 0.00 79 995.0
20260905100503 59 284 3.5 7.8 0.00 0.00 0.00 78 995.0
20260905095505 59 232 2.6 4.3 0.00 0.00 0.00 78 994.9
20260905094504 60 237 2.6 5.2 0.00 0.00 0.00 78 994.9
20260905093504 59 246 1.7 4.3 0.00 0.00 0.00 79 994.9
20260905092504 59 256 2.6 7.0 0.00 0.00 0.00 80 994.8
20260905091503 58 265 2.6 6.1 0.00 0.00 0.00 80 994.9
20260905090503 58 270 2.6 5.2 0.00 0.00 0.00 81 994.9
20260905085503 58 281 3.5 7.0 0.00 0.00 0.00 79 994.9
20260905084505 58 283 3.5 7.0 0.00 0.00 0.00 80 994.9
20260905083505 58 272 3.5 6.1 0.00 0.00 0.00 81 994.9
20260905082504 58 263 2.6 7.0 0.00 0.00 0.00 81 994.9
20260905081524 57 267 2.6 4.3 0.00 0.00 0.00 83 994.8
20260905080523 58 278 1.7 4.3 0.00 0.00 0.00 82 994.8